Location: Unspecified
(0.0000°N, 0.0000°E)
Time: 09:51:06
(UTC+00:00)

deb Midas III - Visible Passes

Search period start: 11 March 2026 00:00
Search period end: 21 March 2026 00:00
Orbit: 3312 x 3547 km, 91.1° (Epoch: 10 March)

Date Brightness Start Highest point End Pass type
(mag) Time Alt. Az. Time Alt. Az. Time Alt. Az.
11 Mar ? 02:23:31 10° S 02:56:10 20° NNW 02:59:43 10° NNW visible
12 Mar ? 00:00:51 10° SE 00:25:40 10° NE 00:01:41 11° SE visible
12 Mar ? 02:34:01 10° S 03:06:52 18° NNW 03:09:44 10° NNW visible
13 Mar ? 00:09:24 10° SE 00:36:20 12° NNE 00:37:10 10° NNE visible
13 Mar ? 02:44:39 10° S 03:17:31 15° NNW 03:19:36 10° NNW visible
14 Mar ? 00:18:23 10° SE 00:46:58 13° NNE 00:48:33 10° NNE visible
14 Mar ? 02:55:26 10° SSW 03:28:10 13° NNW 03:29:19 10° NNW visible
15 Mar ? 00:27:38 10° SSE 00:57:36 15° NNE 00:59:41 10° NNE visible
15 Mar ? 03:06:21 10° SSW 03:38:46 10° NNW 03:38:51 10° NNW visible
16 Mar ? 00:37:07 10° SSE 01:08:11 16° NNE 01:10:37 10° NNE visible
16 Mar ? 03:17:27 10° SSW 03:49:21 - NW 03:21:57 20° SSW visible
17 Mar ? 00:46:48 10° SSE 01:18:45 17° NNE 01:21:24 10° N visible
17 Mar ? 03:28:48 10° SSW 03:59:55 - NW 03:31:50 16° SW visible
18 Mar ? 00:56:39 10° SSE 01:29:18 18° N 01:32:03 10° N visible
18 Mar ? 03:40:28 10° SW 04:10:28 - NW 03:41:44 12° SW visible
19 Mar ? 01:06:38 10° SSE 01:39:50 18° N 01:42:34 10° N visible
20 Mar ? 01:16:45 10° S 01:50:21 17° N 01:52:58 10° N visible
